Location: Cointrin
(46.2167°N, 6.1167°E)
Time: 10:06:35
(UTC+00:00)

AO-85 - Pass Details

Date: 17 December 2023
Orbit: 516 x 753 km, 64.8° (Epoch: 04 January)

Event Time Altitude Azimuth Distance (km) Brightness Sun altitude
Rises 17:32:29 0° 320° (NW) 2,910 ? -16.8°
Reaches altitude 10° 17:34:43 10° 316° (NW) 2,036 ? -17.1°
Maximum altitude 17:39:15 56° 239° (WSW) 796 ? -17.9°
Drops below altitude 10° 17:44:03 10° 161° (SSE) 2,153 ? -18.7°
Sets 17:46:29 0° 158° (SSE) 3,094 ? -19.1°
